Back to catalog

VULCAN CENTAUR R/B

AliveGEO
NORAD 67762·ROCKET BODY·🇺🇸 United States

Launched Feb 12, 2026 from Cape Canaveral Space Force Station

Loading…

TLE

FreshSource: Mike McCants

Epoch: Sep 15, 2026, 19:15 UTC

1 67762U 26029D   26258.80248284  .00000000  00000-0  00000-0 0    09
2 67762   0.7482 357.2179 0053137 293.5035  65.9522  0.98157634   418

Track VULCAN CENTAUR R/B in real time with AllMySat

Download on the App Store